Weather Service Report


928 
ASUS43 KFSD 281610
RWRFSD

WEATHER ROUNDUP FOR SE SOUTH DAKOTA/SW MINNESOTA/NW IOWA
NATIONAL WEATHER SERVICE SIOUX FALLS SD
1100 AM CDT WED SEP 28 2016

NOTE: "FAIR" INDICATES FEW OR NO CLOUDS BELOW 12,000 FEET WITH NO
SIGNIFICANT WEATHER AND OR OBSTRUCTIONS TO VISIBILITY.


SDZ038>040-050-052>070-281700-
SOUTHEAST SOUTH DAKOTA
  
CITY           SKY/WX    TMP DP  RH WIND       PRES   REMARKS
BROOKINGS      CLOUDY    49  44  83 N10       30.24R                  
CHAMBERLAIN    SUNNY     57  46  65 NE3       30.26S                  
HURON          MOSUNNY   53  43  68 N5        30.26R                  
MADISON        FAIR      50  46  87 NE10      30.23R                  
MITCHELL       CLOUDY    51  44  77 N6        30.27R                  
SIOUX FALLS    MOSUNNY   55  45  68 N9        30.23R                  
WINNER         FAIR      60  41  49 NE6       30.26R                  
YANKTON        SUNNY     54  45  71 N9        30.22R                  
$$

MNZ071-072-080-081-089-090-097-098-281700-
SOUTHWEST MINNESOTA
  
CITY           SKY/WX    TMP DP  RH WIND       PRES   REMARKS
FAIRMONT       CLOUDY    54  47  77 N13       30.17R                  
JACKSON        CLOUDY    52  45  76 VRB10G18  30.19R                  
LUVERNE        CLOUDY    46  41  81 N9        30.24R                  
MARSHALL       CLOUDY    50  45  83 N10       30.24R                  
MONTEVIDEO     CLOUDY    55  48  76 N5        30.25S                  
PIPESTONE      CLOUDY    46  43  87 N10       30.22S                  
REDWOOD FALLS  CLOUDY    54  47  77 NW9       30.20R                  
TRACY          CLOUDY    52  47  85 N12       30.23R                  
WINDOM         CLOUDY    52  46  82 N13G20    30.20R                  
WORTHINGTON    CLOUDY    49  44  83 N13       30.21R                  
$$

IAZ001>003-012>014-020>022-031-032-NEZ013-014-SDZ071-281700-
NORTHWEST IOWA
  
CITY           SKY/WX    TMP DP  RH WIND       PRES   REMARKS
CHEROKEE       CLOUDY    49  46  90 N10       30.20R                  
DENISON        CLOUDY    52  45  76 N9        30.17R                  
ESTHERVILLE    CLOUDY    53  48  83 N18       30.17R                  
LE MARS        CLOUDY    52  46  82 N9        30.23R                  
ORANGE CITY    CLOUDY    48  45  87 NE8       30.22R                  
SHELDON        CLOUDY    48  46  93 N9G16     30.20R                  
SIOUX CITY     MOSUNNY   56  46  69 NE10      30.21R                  
SPENCER        CLOUDY    54  46  74 N13       30.18R                  
STORM LAKE     CLOUDY    50  45  81 N13G21    30.19R                  
$$
 
ABBREVIATIONS USED IN REMARKS
   TC - TEMPERATURE IN CELSIUS
  WCI - WIND CHILL INDEX
   HX - HEAT INDEX
  VSB - VISIBILITY

  

Return to Home page


Western Regional Climate Center, wrcc@dri.edu